Regional Weather Roundup
Issued by NWS

Home | Current Version | Previous Version | Graphics & Text | Print | Product List | Glossary On
Versions: 1 2 3 4 5 6 7 8 9 10 11 12 13 14 15 16 17 18 19 20 21 22 23 24 25 26 27 28 29 30 31 32 33 34 35 36 37 38 39 40 41 42 43 44 45 46 47 48 49 50
703
ASUS43 KDTX 051301
RWRMI
MICHIGAN HOURLY REGIONAL WEATHER ROUNDUP
NATIONAL WEATHER SERVICE DETROIT/PONTIAC MI
800 AM EST MON DEC 05 2016

NOTE: "FAIR" INDICATES FEW OR NO CLOUDS BELOW 12,000 FEET WITH NO
SIGNIFICANT WEATHER AND/OR OBSTRUCTION TO VISIBILITY.

MIZ047>049-052>055-059>063-066>070-074>076-081>083-051400-
SOUTHEAST LOWER MICHIGAN

CITY           SKY/WX    TMP DP  RH WIND       PRES   REMARKS
ADRIAN         CLOUDY    35  31  85 W7        30.03R WCI  29
ALMA           CLOUDY    34  32  93 SW12G17   29.95R WCI  25
ANN ARBOR      CLOUDY    35  32  88 W9        29.99R WCI  28
BAD AXE        CLOUDY    33  32  98 W13       29.92R WCI  23
CARO           CLOUDY    33  32  96 SW9       29.94R WCI  25
DETROIT CITY   CLOUDY    37  33  85 W12       29.99R WCI  29
DETROIT        CLOUDY    37  33  85 W13       30.01R WCI  29
FLINT          CLOUDY    34  32  92 W8        29.97R WCI  27
GROSSE ILE     CLOUDY    37  32  82 W7        30.00R WCI  31
HILLSDALE      CLOUDY    32  30  93 W7        29.99R WCI  26
HOWELL         CLOUDY    34  32  90 W9        29.97S WCI  27

CITY           SKY/WX    TMP DP  RH WIND       PRES   REMARKS
JACKSON        CLOUDY    34  31  88 W8        29.99R WCI  27
LAMBERTVILLE   CLOUDY    37  32  82 W6        30.03R WCI  32
LANSING        CLOUDY    35  31  85 SW10      29.97R WCI  27
LAPEER         NOT AVBL
MASON          CLOUDY    34  32  93 SW3       29.98R
MONROE         CLOUDY    37  33  86 W8        30.01R WCI  30
PONTIAC        CLOUDY    34  31  88 W15       29.95R WCI  24
PORT HOPE        N/A     34  32  92 W10       29.87R WCI  26
PORT HURON     CLOUDY    36  32  87 W9        29.97R WCI  29
TRI CITIES     CLOUDY    35  32  88 W13       29.94R WCI  26
MIDLAND        CLOUDY    34  32  93 SW6       29.93R WCI  29
TROY           CLOUDY    37  32  83 W10       30.00R WCI  29
SAGINAW HB     CLOUDY    34  32  93 SW8       29.94R WCI  27
$$
MIZ043>046-050>051-056>058-064>065-071>073-077>080-051400-
SOUTHWEST LOWER MICHIGAN

CITY           SKY/WX    TMP DP  RH WIND       PRES   REMARKS
BATTLE CREEK   CLOUDY    34  33  96 W9        29.99R WCI  27
BENTON HARBOR  CLOUDY    36  31  82 W9        30.00S WCI  29
BIG RAPIDS     CLOUDY    35  31  85 W14       29.91R WCI  26
COLDWATER      CLOUDY    34  32  93 SW7       30.01R WCI  28
FREMONT        CLOUDY    35  31  85 W5        29.94S WCI  31
HOLLAND        CLOUDY    38  32  79 W10       29.98R WCI  31
GRAND RAPIDS   CLOUDY    35  32  88 SW8       29.97R WCI  29
IONIA          CLOUDY    33  32  94 SW10      29.95S WCI  25
KALAMAZOO      CLOUDY    35  31  85 SW7       30.00R WCI  29
LUDINGTON      CLOUDY    37  32  80 W7G21     29.92R WCI  32
MARSHALL       CLOUDY    34  32  94 SW7       29.99R WCI  28
MOUNT PLEASANT CLOUDY    34  32  91 W7        29.92R WCI  28
MUSKEGON       CLOUDY    39  31  72 W9        29.97R WCI  33
SOUTH HAVEN    MOCLDY    38  34  82 W8        29.99S WCI  33
$$
MIZ016>042-051400-
NORTHERN LOWER MICHIGAN

CITY           SKY/WX    TMP DP  RH WIND       PRES   REMARKS
ALPENA         CLOUDY    34  31  88 SW8       29.82R WCI  27
BEAVER ISLAND  CLOUDY    37  32  82 W16G25    29.80R WCI  28
BELLAIRE       CLOUDY    37  33  88 SW7G16    29.85R WCI  31
CADILLAC       CLOUDY    33  31  92 W10       29.86R WCI  25
CHARLEVOIX     CLOUDY    39  32  77 W17G25    29.83R WCI  30
FRANKFORT      CLOUDY    39  33  77 W12G21    29.87S WCI  32
GAYLORD        LGT SNOW  34  30  85 SW14      29.81R FOG     WCI  25
GRAYLING       CLOUDY    34  32  94 SW5       29.85R WCI  30
HARBOR SPRINGS LGT RAIN  37  34  86 W13G26    29.79R WCI  29
HOUGHTON LAKE  CLOUDY    34  31  88 W12       29.87R WCI  25
MANISTEE       CLOUDY    38  31  76 W15G21    29.90R WCI  29
OSCODA         CLOUDY    33  32  95 MISG      29.87R
PELLSTON       LGT RAIN  35  32  88 W7        29.80R WCI  29
ROGERS CITY    CLOUDY    34  32  93 SW7       29.81R WCI  28
TRAVERSE CITY  CLOUDY    36  32  85 SW3       29.85R
$$
MIZ007>008-015-051400-
EASTERN UPPER MICHIGAN

CITY           SKY/WX    TMP DP  RH WIND       PRES   REMARKS
KINROSS        CLOUDY    32  31  96 W8        29.77R WCI  25
MACKINAC ISLAN LGT SNOW  34  34 100 W12G17    29.78R WCI  26
NEWBERRY       CLOUDY    32  31  97 SW7       29.76R WCI  25
S. S. MARIE    CLOUDY    33  31  92 W8        29.74S WCI  26
MUNISING         N/A     33  31  92 S8        29.76R WCI  26
$$
MIZ004>006-011>014-085-051400-
CENTRAL UPPER MICHIGAN

CITY           SKY/WX    TMP DP  RH WIND       PRES   REMARKS
MANISTIQUE     CLOUDY    32  31  94 W3        29.79R
ESCANABA       CLOUDY    33  32  96 SW9       29.81R WCI  25
MENOMINEE        N/A     32  31  96 MISG        N/A
SAWYER-GWINN   CLEAR     28  27  93 SW7       29.74R WCI  21
$$
MIZ001>003-009>011-084-051400-
WESTERN UPPER MICHIGAN

CITY           SKY/WX    TMP DP  RH WIND       PRES   REMARKS
IRON MOUNTAIN  CLOUDY    33  28  81 SW7       29.77R WCI  27
HOUGHTON       CLOUDY    35  30  82 W13       29.70R WCI  26
COPPER HARBOR    N/A     35  33  92 VRB7      29.69R WCI  29
IRONWOOD       CLOUDY    32  28  85 W8        29.78R WCI  25
$$

ABBREVIATIONS USED IN REMARKS
   TC - TEMPERATURE IN CELSIUS
  WCI - WIND CHILL INDEX
   HX - HEAT INDEX
  VSB - VISIBILITY





USA.gov is the U.S. government's official web portal to all federal, state and local government web resources and services.